Time,TemperatureF,DewpointF,PressureIn,WindDirection,WindDirectionDegrees,WindSpeedMPH,WindSpeedGustMPH,Humidity,HourlyPrecipIn,Conditions,Clouds,dailyrainin,SoftwareType,DateUTC
2013-04-29 00:00:00,62.0,45.1,29.85,ENE,67,3.0,13.0,54,0.00,,,-99.99,Weather View 32 v60,2013-04-29 05:00:00,
2013-04-29 00:15:00,62.0,45.1,29.86,ENE,67,3.0,12.0,54,0.00,,,-99.99,Weather View 32 v60,2013-04-29 05:15:00,
2013-04-29 00:30:00,62.0,45.6,29.86,ENE,67,2.0,9.0,55,0.00,,,-99.99,Weather View 32 v60,2013-04-29 05:30:00,
2013-04-29 00:45:00,61.0,45.6,29.87,ENE,67,3.0,10.0,57,0.00,,,-99.99,Weather View 32 v60,2013-04-29 05:45:00,
2013-04-29 00:57:00,61.0,45.6,29.87,ENE,67,3.0,10.0,57,0.00,,,-99.99,Weather View 32 v60,2013-04-29 05:57:00,
2013-04-29 01:00:00,60.0,45.6,29.87,ENE,67,4.0,10.0,59,0.00,,,-99.99,Weather View 32 v60,2013-04-29 06:00:00,
2013-04-29 01:15:00,60.0,45.1,29.87,ENE,67,11.0,11.0,58,0.00,,,-99.99,Weather View 32 v60,2013-04-29 06:15:00,
2013-04-29 01:30:00,60.0,45.1,29.87,NNE,22,3.0,12.0,58,0.00,,,-99.99,Weather View 32 v60,2013-04-29 06:30:00,
2013-04-29 01:45:00,59.0,46.4,29.89,North,360,0.0,12.0,63,0.00,,,-99.99,Weather View 32 v60,2013-04-29 06:45:00,
2013-04-29 01:58:00,59.0,46.4,29.89,North,360,0.0,12.0,63,0.00,,,-99.99,Weather View 32 v60,2013-04-29 06:58:00,
2013-04-29 02:15:00,57.0,49.1,29.90,NE,45,4.0,13.0,75,0.00,,,-99.99,Weather View 32 v60,2013-04-29 07:15:00,
2013-04-29 02:30:00,55.0,48.3,29.91,ENE,67,0.0,13.0,78,0.00,,,-99.99,Weather View 32 v60,2013-04-29 07:30:00,
2013-04-29 02:45:00,54.0,47.6,29.90,ENE,67,8.0,13.0,79,0.00,,,-99.99,Weather View 32 v60,2013-04-29 07:45:00,
2013-04-29 02:58:00,54.0,47.6,29.90,ENE,67,8.0,13.0,79,0.00,,,-99.99,Weather View 32 v60,2013-04-29 07:58:00,
2013-04-29 03:15:00,54.0,48.0,29.91,ENE,67,8.0,15.0,80,0.00,,,-99.99,Weather View 32 v60,2013-04-29 08:15:00,
2013-04-29 03:30:00,53.0,47.0,29.91,ENE,67,8.0,15.0,80,0.00,,,-99.99,Weather View 32 v60,2013-04-29 08:30:00,
2013-04-29 03:45:00,53.0,47.3,29.91,NE,45,7.0,15.0,81,0.00,,,-99.99,Weather View 32 v60,2013-04-29 08:45:00,
2013-04-29 03:59:00,53.0,47.3,29.91,NE,45,7.0,15.0,81,0.00,,,-99.99,Weather View 32 v60,2013-04-29 08:59:00,
2013-04-29 04:15:00,51.0,45.7,29.91,NE,45,7.0,14.0,82,0.00,,,-99.99,Weather View 32 v60,2013-04-29 09:15:00,
2013-04-29 04:30:00,51.0,45.7,29.93,ENE,67,4.0,13.0,82,0.00,,,-99.99,Weather View 32 v60,2013-04-29 09:30:00,
2013-04-29 04:45:00,51.0,45.7,29.93,NE,45,6.0,12.0,82,0.00,,,-99.99,Weather View 32 v60,2013-04-29 09:45:00,
2013-04-29 05:00:00,51.0,45.7,29.93,NE,45,6.0,12.0,82,0.00,,,-99.99,Weather View 32 v60,2013-04-29 10:00:00,
2013-04-29 05:15:00,50.0,44.7,29.92,NE,45,6.0,12.0,82,0.00,,,-99.99,Weather View 32 v60,2013-04-29 10:15:00,
2013-04-29 05:30:00,50.0,44.7,29.92,ENE,67,6.0,13.0,82,0.00,,,-99.99,Weather View 32 v60,2013-04-29 10:30:00,
2013-04-29 05:45:00,49.0,43.4,29.93,ENE,67,4.0,13.0,81,0.00,,,-99.99,Weather View 32 v60,2013-04-29 10:45:00,
2013-04-29 06:00:00,49.0,43.4,29.94,ENE,67,7.0,13.0,81,0.00,,,-99.99,Weather View 32 v60,2013-04-29 11:00:00,
2013-04-29 06:15:00,48.0,42.1,29.94,ENE,67,7.0,13.0,80,0.00,,,-99.99,Weather View 32 v60,2013-04-29 11:15:00,
2013-04-29 06:30:00,48.0,41.5,29.94,ENE,67,8.0,13.0,78,0.00,,,-99.99,Weather View 32 v60,2013-04-29 11:30:00,
2013-04-29 06:45:00,48.0,41.1,29.94,ENE,67,7.0,13.0,77,0.00,,,-99.99,Weather View 32 v60,2013-04-29 11:45:00,
2013-04-29 07:00:00,48.0,41.1,29.95,ENE,67,5.0,13.0,77,0.00,,,-99.99,Weather View 32 v60,2013-04-29 12:00:00,
2013-04-29 07:15:00,48.0,40.1,29.95,East,90,6.0,13.0,74,0.00,,,-99.99,Weather View 32 v60,2013-04-29 12:15:00,
2013-04-29 07:30:00,48.0,39.7,29.97,NNE,22,0.0,12.0,73,0.00,,,-99.99,Weather View 32 v60,2013-04-29 12:30:00,
2013-04-29 07:45:00,48.0,39.7,29.96,ENE,67,1.0,12.0,73,0.00,,,-99.99,Weather View 32 v60,2013-04-29 12:45:00,
2013-04-29 08:00:00,49.0,40.7,29.95,East,90,7.0,12.0,73,0.00,,,-99.99,Weather View 32 v60,2013-04-29 13:00:00,
2013-04-29 08:15:00,49.0,40.4,29.94,ENE,67,7.0,12.0,72,0.00,,,-99.99,Weather View 32 v60,2013-04-29 13:15:00,
2013-04-29 08:30:00,50.0,40.2,29.93,East,90,4.0,12.0,69,0.00,,,-99.99,Weather View 32 v60,2013-04-29 13:30:00,
2013-04-29 08:45:00,51.0,41.5,29.92,ENE,67,2.0,14.0,70,0.00,,,-99.99,Weather View 32 v60,2013-04-29 13:45:00,
2013-04-29 09:00:00,54.0,43.7,29.91,East,90,1.0,14.0,68,0.00,,,-99.99,Weather View 32 v60,2013-04-29 14:00:00,
2013-04-29 09:15:00,55.0,43.8,29.90,ENE,67,6.0,14.0,66,0.00,,,-99.99,Weather View 32 v60,2013-04-29 14:15:00,
2013-04-29 09:30:00,56.0,44.0,29.90,ENE,67,0.0,14.0,64,0.00,,,-99.99,Weather View 32 v60,2013-04-29 14:30:00,
2013-04-29 09:45:00,58.0,45.0,29.89,East,90,0.0,12.0,62,0.00,,,-99.99,Weather View 32 v60,2013-04-29 14:45:00,
2013-04-29 10:00:00,59.0,44.7,29.87,East,90,10.0,11.0,59,0.00,,,-99.99,Weather View 32 v60,2013-04-29 15:00:00,
2013-04-29 10:15:00,59.0,45.5,29.87,ENE,67,4.0,14.0,61,0.00,,,-99.99,Weather View 32 v60,2013-04-29 15:15:00,
2013-04-29 10:30:00,61.0,46.5,29.86,North,360,0.0,14.0,59,0.00,,,-99.99,Weather View 32 v60,2013-04-29 15:30:00,
2013-04-29 10:45:00,63.0,46.5,29.85,East,90,4.0,14.0,55,0.00,,,-99.99,Weather View 32 v60,2013-04-29 15:45:00,
2013-04-29 11:00:00,63.0,48.4,29.84,East,90,4.0,14.0,59,0.00,,,-99.99,Weather View 32 v60,2013-04-29 16:00:00,
2013-04-29 11:15:00,65.0,48.4,29.82,ENE,67,5.0,13.0,55,0.00,,,-99.99,Weather View 32 v60,2013-04-29 16:15:00,
2013-04-29 11:30:00,65.0,48.4,29.81,ENE,67,6.0,14.0,55,0.00,,,-99.99,Weather View 32 v60,2013-04-29 16:30:00,
2013-04-29 11:45:00,65.0,48.9,29.81,ESE,112,6.0,14.0,56,0.00,,,-99.99,Weather View 32 v60,2013-04-29 16:45:00,
2013-04-29 12:00:00,65.0,49.4,29.79,East,90,9.0,16.0,57,0.00,,,-99.99,Weather View 32 v60,2013-04-29 17:00:00,
2013-04-29 12:15:00,66.0,50.3,29.79,ENE,67,1.0,16.0,57,0.00,,,-99.99,Weather View 32 v60,2013-04-29 17:15:00,
2013-04-29 12:30:00,67.0,50.3,29.79,SE,135,2.0,16.0,55,0.00,,,-99.99,Weather View 32 v60,2013-04-29 17:30:00,
2013-04-29 12:45:00,70.0,51.5,29.77,ESE,112,7.0,16.0,52,0.00,,,-99.99,Weather View 32 v60,2013-04-29 17:45:00,
2013-04-29 13:00:00,72.0,52.3,29.76,South,180,0.0,15.0,50,0.00,,,-99.99,Weather View 32 v60,2013-04-29 18:00:00,
2013-04-29 13:15:00,73.0,52.1,29.76,SW,225,6.0,13.0,48,0.00,,,-99.99,Weather View 32 v60,2013-04-29 18:15:00,
2013-04-29 13:30:00,73.0,51.5,29.75,West,270,7.0,13.0,47,0.00,,,-99.99,Weather View 32 v60,2013-04-29 18:30:00,
2013-04-29 13:45:00,76.0,51.8,29.73,West,270,0.0,12.0,43,0.00,,,-99.99,Weather View 32 v60,2013-04-29 18:45:00,
2013-04-29 14:00:00,76.0,51.8,29.73,East,90,0.0,12.0,43,0.00,,,-99.99,Weather View 32 v60,2013-04-29 19:00:00,
2013-04-29 14:15:00,77.0,50.8,29.71,ESE,112,3.0,12.0,40,0.00,,,-99.99,Weather View 32 v60,2013-04-29 19:15:00,
2013-04-29 14:30:00,77.0,50.8,29.71,SW,225,4.0,12.0,40,0.00,,,-99.99,Weather View 32 v60,2013-04-29 19:30:00,
2013-04-29 14:45:00,77.0,50.1,29.71,West,270,8.0,13.0,39,0.00,,,-99.99,Weather View 32 v60,2013-04-29 19:45:00,
2013-04-29 15:00:00,78.0,51.0,29.70,SW,225,7.0,13.0,39,0.00,,,-99.99,Weather View 32 v60,2013-04-29 20:00:00,
2013-04-29 15:05:00,78.0,51.0,29.70,SW,225,7.0,13.0,39,0.00,,,-99.99,Weather View 32 v60,2013-04-29 20:05:00,
2013-04-29 15:15:00,78.0,51.0,29.70,South,180,1.0,13.0,39,0.00,,,-99.99,Weather View 32 v60,2013-04-29 20:15:00,
2013-04-29 15:30:00,79.0,48.1,29.69,SW,225,1.0,13.0,34,0.00,,,-99.99,Weather View 32 v60,2013-04-29 20:30:00,
2013-04-29 15:45:00,80.0,49.0,29.67,SSW,202,0.0,13.0,34,0.00,,,-99.99,Weather View 32 v60,2013-04-29 20:45:00,
2013-04-29 16:00:00,81.0,47.4,29.67,South,180,4.0,13.0,31,0.00,,,-99.99,Weather View 32 v60,2013-04-29 21:00:00,
2013-04-29 16:06:00,81.0,47.4,29.67,South,180,4.0,13.0,31,0.00,,,-99.99,Weather View 32 v60,2013-04-29 21:06:00,
2013-04-29 16:15:00,81.0,47.4,29.66,ENE,67,0.0,12.0,31,0.00,,,-99.99,Weather View 32 v60,2013-04-29 21:15:00,
2013-04-29 16:30:00,82.0,47.4,29.65,SSW,202,6.0,11.0,30,0.00,,,-99.99,Weather View 32 v60,2013-04-29 21:30:00,
2013-04-29 16:45:00,83.0,49.2,29.64,SSW,202,0.0,11.0,31,0.00,,,-99.99,Weather View 32 v60,2013-04-29 21:45:00,
2013-04-29 17:00:00,83.0,49.2,29.64,SSW,202,6.0,9.0,31,0.00,,,-99.99,Weather View 32 v60,2013-04-29 22:00:00,
2013-04-29 17:07:00,83.0,49.2,29.64,SSW,202,6.0,9.0,31,0.00,,,-99.99,Weather View 32 v60,2013-04-29 22:07:00,
2013-04-29 17:15:00,81.0,47.4,29.63,South,180,2.0,10.0,31,0.00,,,-99.99,Weather View 32 v60,2013-04-29 22:15:00,
2013-04-29 17:30:00,81.0,45.7,29.62,West,270,0.0,10.0,29,0.00,,,-99.99,Weather View 32 v60,2013-04-29 22:30:00,
2013-04-29 17:45:00,81.0,45.7,29.61,SSE,157,6.0,13.0,29,0.00,,,-99.99,Weather View 32 v60,2013-04-29 22:45:00,
2013-04-29 18:00:00,82.0,47.4,29.61,SSW,202,6.0,13.0,30,0.00,,,-99.99,Weather View 32 v60,2013-04-29 23:00:00,
2013-04-29 18:07:00,82.0,47.4,29.61,SSW,202,6.0,13.0,30,0.00,,,-99.99,Weather View 32 v60,2013-04-29 23:07:00,
2013-04-29 18:15:00,80.0,48.2,29.61,South,180,2.0,13.0,33,0.00,,,-99.99,Weather View 32 v60,2013-04-29 23:15:00,
2013-04-29 18:30:00,79.0,46.5,29.61,SE,135,0.0,13.0,32,0.00,,,-99.99,Weather View 32 v60,2013-04-29 23:30:00,
2013-04-29 18:45:00,80.0,46.6,29.61,WSW,247,3.0,9.0,31,0.00,,,-99.99,Weather View 32 v60,2013-04-29 23:45:00,
2013-04-29 19:00:00,81.0,48.3,29.59,SE,135,0.0,9.0,32,0.00,,,-99.99,Weather View 32 v60,2013-04-30 00:00:00,
2013-04-29 19:08:00,81.0,48.3,29.59,SE,135,0.0,9.0,32,0.00,,,-99.99,Weather View 32 v60,2013-04-30 00:08:00,
2013-04-29 19:15:00,80.0,47.4,29.59,SSW,202,0.0,9.0,32,0.00,,,-99.99,Weather View 32 v60,2013-04-30 00:15:00,
2013-04-29 19:30:00,79.0,44.8,29.60,SSW,202,0.0,9.0,30,0.00,,,-99.99,Weather View 32 v60,2013-04-30 00:30:00,
2013-04-29 19:45:00,78.0,45.7,29.60,SW,225,0.0,9.0,32,0.00,,,-99.99,Weather View 32 v60,2013-04-30 00:45:00,
2013-04-29 20:00:00,77.0,45.6,29.61,South,180,0.0,7.0,33,0.00,,,-99.99,Weather View 32 v60,2013-04-30 01:00:00,
2013-04-29 20:08:00,77.0,45.6,29.61,South,180,0.0,7.0,33,0.00,,,-99.99,Weather View 32 v60,2013-04-30 01:08:00,
2013-04-29 20:15:00,76.0,45.5,29.61,SE,135,3.0,7.0,34,0.00,,,-99.99,Weather View 32 v60,2013-04-30 01:15:00,
2013-04-29 20:30:00,75.0,46.2,29.61,SSE,157,0.0,4.0,36,0.00,,,-99.99,Weather View 32 v60,2013-04-30 01:30:00,
2013-04-29 20:45:00,74.0,46.0,29.61,SSE,157,0.0,5.0,37,0.00,,,-99.99,Weather View 32 v60,2013-04-30 01:45:00,
2013-04-29 21:00:00,73.0,46.5,29.61,SSE,157,0.0,5.0,39,0.00,,,-99.99,Weather View 32 v60,2013-04-30 02:00:00,
2013-04-29 21:09:00,73.0,46.5,29.61,SSE,157,0.0,5.0,39,0.00,,,-99.99,Weather View 32 v60,2013-04-30 02:09:00,
2013-04-29 21:15:00,72.0,46.3,29.61,SE,135,0.0,5.0,40,0.00,,,-99.99,Weather View 32 v60,2013-04-30 02:15:00,
2013-04-29 21:30:00,72.0,46.3,29.61,SSE,157,0.0,5.0,40,0.00,,,-99.99,Weather View 32 v60,2013-04-30 02:30:00,
2013-04-29 21:45:00,71.0,46.7,29.62,NNW,337,0.0,3.0,42,0.00,,,-99.99,Weather View 32 v60,2013-04-30 02:45:00,
2013-04-29 22:00:00,70.0,47.0,29.62,West,270,0.0,3.0,44,0.00,,,-99.99,Weather View 32 v60,2013-04-30 03:00:00,
2013-04-29 22:10:00,70.0,47.0,29.62,West,270,0.0,3.0,44,0.00,,,-99.99,Weather View 32 v60,2013-04-30 03:10:00,
2013-04-29 22:15:00,70.0,47.6,29.61,SW,225,0.0,2.0,45,0.00,,,-99.99,Weather View 32 v60,2013-04-30 03:15:00,
2013-04-29 22:30:00,70.0,47.6,29.61,SE,135,0.0,2.0,45,0.00,,,-99.99,Weather View 32 v60,2013-04-30 03:30:00,
2013-04-29 22:45:00,69.0,47.3,29.61,South,180,0.0,1.0,46,0.00,,,-99.99,Weather View 32 v60,2013-04-30 03:45:00,
2013-04-29 23:00:00,69.0,47.9,29.61,WSW,247,0.0,1.0,47,0.00,,,-99.99,Weather View 32 v60,2013-04-30 04:00:00,
2013-04-29 23:10:00,69.0,47.9,29.61,WSW,247,0.0,1.0,47,0.00,,,-99.99,Weather View 32 v60,2013-04-30 04:10:00,
2013-04-29 23:15:00,68.0,47.5,29.60,West,270,0.0,5.0,48,0.00,,,-99.99,Weather View 32 v60,2013-04-30 04:15:00,
2013-04-29 23:30:00,68.0,47.5,29.60,West,270,0.0,5.0,48,0.00,,,-99.99,Weather View 32 v60,2013-04-30 04:30:00,
2013-04-29 23:45:00,68.0,48.1,29.59,West,270,0.0,5.0,49,0.00,,,-99.99,Weather View 32 v60,2013-04-30 04:45:00,